Regional Weather Roundup
Issued by NWS

Home | Current Version | Previous Version | Text Only | Print | Product List | Glossary On
Versions: 1 2 3 4 5 6 7 8 9 10 11 12 13 14 15 16 17 18 19 20 21 22 23 24 25 26 27 28 29 30 31 32 33 34 35 36 37 38 39 40 41 42 43 44 45 46 47 48 49 50
000
ASPQ40 PGUM 220010
RWRPQ
WEATHER ROUNDUP FOR THE MARIANAS AND MICRONESIA
NATIONAL WEATHER SERVICE TIYAN GU
1000 AM CHST SUN APR 22 2018

GUZ001>004-220100-
MARIANA ISLANDS-

CITY           SKY/WX    TMP DP  RH WIND       PRES   REMARKS
GUAM AIRPORT   MOSUNNY   86  73  66 E18       29.89S HX  93
ANDERSEN AFB   MOSUNNY   84  72  65 E16G28    29.90S
ROTA AIRPORT   MOSUNNY   82  70  65 E17G24    29.89S
TINIAN AP      MOSUNNY   82  73  74 E15       29.88S
SAIPAN AP      MOSUNNY   84  72  65 E17       29.89F

$$

PMZ161-220100-
REPUBLIC OF PALAU-

CITY           SKY/WX    TMP DP  RH WIND       PRES   REMARKS
KOROR AP       PTSUNNY   86  75  70 NE14G20   29.82R HX  95
KOROR WSO      PTSUNNY   86  77  74 NE7       29.83R HX  97

$$

PMZ171>174-220100-
FEDERATED STATES OF MICRONESIA-

CITY           SKY/WX    TMP DP  RH WIND       PRES   REMARKS
YAP AIRPORT    PTSUNNY   82  75  78 E10       29.84R
CHUUK AP       NOT AVBL
POHNPEI AP     CLOUDY    86  79  79 N9        29.77S HX  99
POHNPEI WSO    PTSUNNY   88  79  74 NE6       29.81S HX 102
KOSRAE AP      LGT RAIN  81  77  89 SE13      29.77F

$$

PMZ181-220100-
REPUBLIC OF THE MARSHALL ISLANDS-

CITY           SKY/WX    TMP DP  RH WIND       PRES   REMARKS
KWAJALEIN AP   MOSUNNY   81  75  83 NW3       29.81F
MAJURO AP      NOT AVBL
MAJURO WSO     PTSUNNY   88  79  74 SE9       29.76F HX 102

$$




USA.gov is the U.S. government's official web portal to all federal, state and local government web resources and services.